Weather History for KPZQ - August, 2014

Change the Weather History Date:

Thursday, August 28, 2014

  Actual Average (KAPN) Record (KAPN)
Temperature  
Mean Temperature 56 °F 63 °F  
Max Temperature 64 °F 75 °F 96 °F (1953)
Min Temperature 48 °F 52 °F 31 °F (1925)
Degree Days  
Heating Degree Days 9 3  
Month to date heating degree days 60  
Since 1 June heating degree days 247  
Since 1 July heating degree days 104  
Cooling Degree Days 0 2  
Month to date cooling degree days 74  
Year to date cooling degree days 259  
Since 1 June cooling degree days 246  
Growing Degree Days 6 (Base 50)    
Moisture  
Dew Point 50 °F    
Average Humidity 80    
Maximum Humidity 100    
Minimum Humidity 56    
Precipitation  
Precipitation 0.00 in 0.11 in 1.84 in (1984)
Month to date precipitation 2.91  
Year to date precipitation 18.46  
Sea Level Pressure  
Sea Level Pressure 30.17 in    
Wind  
Wind Speed 5 mph (NW)    
Max Wind Speed 8 mph    
Max Gust Speed -    
Visibility 10 miles    
Events      
T = Trace of Precipitation, MM = Missing Value Source: NWS Daily Summary

Daily Weather History Graph

Daily Weather History Graph

Search for Another Location

Airport or City:

Trip Planner

Search our weather history database for the weather conditions in past years. The results will help you decide how hot, cold, wet, or windy it might be!

Date:

Astronomy

Aug. 28, 2014 Rise Set
Actual Time 6:51 AM EDT 8:20 PM EDT
Civil Twilight 6:20 AM EDT 8:50 PM EDT
Nautical Twilight 5:43 AM EDT 9:28 PM EDT
Astronomical Twilight 5:03 AM EDT 10:08 PM EDT
Moon 9:53 AM EDT (8/28) 9:32 PM EDT (8/28)
Length of Visible Light 14h 29m
Length of Day
13h 28m
Waxing Crescent, 8% of the Moon is Illuminated
Aug 28
Waxing Crescent
Sep 2
First Quarter
Sep 8
Full
Sep 15
Last Quarter
Sep 24
New

Hourly Weather History & Observations

Time (EDT) Temp. Dew Point Humidity Pressure Visibility Wind Dir Wind Speed Gust Speed Precip Events Conditions
12:16 AM 53.6 °F 48.2 °F 82% 30.17 in 10.0 mi West 4.6 mph - N/A   Clear
1:36 AM 50.0 °F 46.4 °F 87% 30.17 in 10.0 mi West 4.6 mph - N/A   Clear
1:58 AM 50.0 °F 48.2 °F 94% 30.17 in 10.0 mi WNW 4.6 mph - N/A   Clear
2:23 AM 51.8 °F 48.2 °F 88% 30.16 in 10.0 mi WNW 5.8 mph - N/A   Clear
2:37 AM 50.0 °F 46.4 °F 87% 30.16 in 10.0 mi West 4.6 mph - N/A   Clear
3:01 AM 48.2 °F 46.4 °F 93% 30.16 in 10.0 mi West 4.6 mph - N/A   Clear
3:16 AM 48.2 °F 46.4 °F 93% 30.17 in 10.0 mi West 3.5 mph - N/A   Clear
3:39 AM 48.2 °F 46.4 °F 93% 30.17 in 10.0 mi West 4.6 mph - N/A   Clear
3:59 AM 48.2 °F 48.2 °F 100% 30.17 in 10.0 mi WSW 3.5 mph - N/A   Clear
4:16 AM 48.2 °F 46.4 °F 93% 30.17 in 10.0 mi West 4.6 mph - N/A   Clear
4:37 AM 48.2 °F 48.2 °F 100% 30.17 in 10.0 mi WSW 4.6 mph - N/A   Clear
5:02 AM 48.2 °F 46.4 °F 93% 30.17 in 10.0 mi West 4.6 mph - N/A   Clear
5:16 AM 48.2 °F 46.4 °F 93% 30.17 in 10.0 mi West 4.6 mph - N/A   Clear
6:56 AM 48.2 °F 46.4 °F 93% 30.19 in 10.0 mi WSW 5.8 mph - N/A   Clear
7:16 AM 48.2 °F 46.4 °F 93% 30.19 in 10.0 mi WSW 5.8 mph - N/A   Clear
7:37 AM 48.2 °F 48.2 °F 100% 30.19 in 10.0 mi West 5.8 mph - N/A   Clear
8:01 AM 50.0 °F 50.0 °F 100% 30.20 in 10.0 mi West 4.6 mph - N/A   Clear
8:24 AM 53.6 °F 50.0 °F 88% 30.20 in 10.0 mi West 5.8 mph - N/A   Clear
8:40 AM 55.4 °F 51.8 °F 88% 30.20 in 10.0 mi West 5.8 mph - N/A   Clear
8:59 AM 55.4 °F 53.6 °F 94% 30.20 in 10.0 mi West 4.6 mph - N/A   Clear
9:22 AM 59.0 °F 53.6 °F 82% 30.20 in 10.0 mi NW 4.6 mph - N/A   Clear
9:42 AM 59.0 °F 55.4 °F 88% 30.21 in 10.0 mi NNW 8.1 mph - N/A   Clear
10:01 AM 59.0 °F 55.4 °F 88% 30.20 in 10.0 mi NNW 6.9 mph - N/A   Scattered Clouds
10:20 AM 59.0 °F 55.4 °F 88% 30.20 in 10.0 mi NNW 8.1 mph - N/A   Mostly Cloudy
10:40 AM 59.0 °F 55.4 °F 88% 30.20 in 7.0 mi North 8.1 mph - N/A   Scattered Clouds
10:58 AM 60.8 °F 55.4 °F 82% 30.20 in 10.0 mi NNW 4.6 mph - N/A   Scattered Clouds
11:16 AM 59.0 °F 55.4 °F 88% 30.20 in 10.0 mi NW 5.8 mph - N/A   Scattered Clouds
11:39 AM 60.8 °F 53.6 °F 77% 30.20 in 10.0 mi North 3.5 mph - N/A   Clear
12:18 PM 60.8 °F 51.8 °F 72% 30.20 in 10.0 mi North 4.6 mph - N/A   Clear
12:37 PM 60.8 °F 51.8 °F 72% 30.20 in 5.0 mi NNE 5.8 mph - N/A   Haze
1:40 PM 62.6 °F 50.0 °F 63% 30.20 in 10.0 mi North 5.8 mph - N/A   Clear
2:00 PM 62.6 °F 51.8 °F 68% 30.19 in 10.0 mi NNE 5.8 mph - N/A   Clear
2:21 PM 62.6 °F 50.0 °F 63% 30.19 in 7.0 mi NNE 5.8 mph - N/A   Clear
2:38 PM 64.4 °F 50.0 °F 59% 30.18 in 10.0 mi NNE 6.9 mph - N/A   Clear
3:01 PM 62.6 °F 50.0 °F 63% 30.18 in 5.0 mi North 6.9 mph - N/A   Haze
3:24 PM 64.4 °F 50.0 °F 59% 30.17 in 5.0 mi NNE 5.8 mph - N/A   Haze
3:40 PM 62.6 °F 50.0 °F 63% 30.17 in 10.0 mi NNE 5.8 mph - N/A   Clear
3:59 PM 64.4 °F 50.0 °F 59% 30.17 in 10.0 mi NE 5.8 mph - N/A   Clear
4:19 PM 64.4 °F 48.2 °F 56% 30.16 in 10.0 mi NNE 5.8 mph - N/A   Clear
5:00 PM 62.6 °F 50.0 °F 63% 30.16 in 10.0 mi NNE 5.8 mph - N/A   Clear
5:18 PM 62.6 °F 50.0 °F 63% 30.15 in 10.0 mi NE 5.8 mph - N/A   Clear
5:42 PM 62.6 °F 50.0 °F 63% 30.15 in 10.0 mi North 4.6 mph - N/A   Clear
6:04 PM 62.6 °F 50.0 °F 63% 30.15 in 10.0 mi North 3.5 mph - N/A   Clear
6:39 PM 62.6 °F 50.0 °F 63% 30.14 in 10.0 mi Calm Calm - N/A   Clear
6:56 PM 62.6 °F 50.0 °F 63% 30.14 in 10.0 mi Calm Calm - N/A   Clear
7:25 PM 60.8 °F 50.0 °F 68% 30.13 in 10.0 mi Calm Calm - N/A   Clear
7:40 PM 60.8 °F 51.8 °F 72% 30.13 in 10.0 mi Calm Calm - N/A   Clear
8:03 PM 57.2 °F 51.8 °F 82% 30.13 in 10.0 mi Calm Calm - N/A   Clear
8:21 PM 55.4 °F 50.0 °F 82% 30.13 in 10.0 mi Calm Calm - N/A   Clear
8:39 PM 55.4 °F 50.0 °F 82% 30.14 in 10.0 mi SSE 3.5 mph - N/A   Clear
10:38 PM 57.2 °F 50.0 °F 77% 30.15 in 10.0 mi South 5.8 mph - N/A   Clear
11:02 PM 55.4 °F 50.0 °F 82% 30.14 in 10.0 mi SSE 3.5 mph - N/A   Clear
11:18 PM 57.2 °F 50.0 °F 77% 30.14 in 10.0 mi SE 4.6 mph - N/A   Clear
11:37 PM 55.4 °F 50.0 °F 82% 30.14 in 10.0 mi Calm Calm - N/A   Clear
11:59 PM 55.4 °F 48.2 °F 77% 30.14 in 10.0 mi Calm Calm - N/A   Clear